This demonstration page uses our WeatherBlox Daily Observations layout. Learn more.

Left ArrowRight Arrow

53.62937, 11.41316

Hourly Observations for January 17, 2022

Temp ( °F °C ) Dew Point ( °F °C ) Humidity (%) Winds ( mph kmh ) Pressure ( in mb ) Visibility ( mi km ) Precip ( " mm )
12:20 am 00:20 Mostly Cloudy 43 6 36 2 76 76 W 14 22 30.09 1019 30 48 N/A
12:50 am 00:50 Cloudy 43 6 36 2 76 76 W 13 20 30.09 1019 30 48 N/A
1:20 am 01:20 Mostly Cloudy 43 6 36 2 76 76 W 15 24 30.06 1018 30 48 N/A
1:50 am 01:50 Cloudy 43 6 36 2 76 76 W 16 26 30.06 1018 30 48 N/A
2:20 am 02:20 Mostly Cloudy 43 6 36 2 76 76 W 16 26 30.06 1018 30 48 N/A
2:50 am 02:50 Mostly Cloudy 43 6 37 3 81 81 W 16 26 30.06 1018 30 48 N/A
3:20 am 03:20 Mostly Cloudy 45 7 36 2 71 71 W 18 30 30.06 1018 30 48 N/A
3:50 am 03:50 Cloudy 45 7 37 3 76 76 W 20 31 30.03 1017 30 48 N/A
4:20 am 04:20 Cloudy 45 7 37 3 76 76 W 21 33 30.03 1017 30 48 N/A
4:50 am 04:50 Cloudy 45 7 37 3 76 76 W 18 30 30.03 1017 30 48 N/A
5:20 am 05:20 Cloudy 45 7 37 3 76 76 W 20 31 30.03 1017 30 48 N/A
5:50 am 05:50 Cloudy 45 7 39 4 81 81 W 21 33 30.03 1017 30 48 N/A
6:20 am 06:20 Mostly Cloudy with Light Rain 45 7 39 4 81 81 W 21 33 30.03 1017 30 48 N/A
6:50 am 06:50 Mostly Cloudy 45 7 41 5 87 87 W 20 31 30.03 1017 30 48 N/A
7:20 am 07:20 Mostly Cloudy 45 7 41 5 87 87 W 22 35 30.03 1017 6 9 N/A
7:50 am 07:50 Mostly Cloudy with Light Rain 46 8 41 5 82 82 W 20 31 30.00 1016 30 48 N/A
8:20 am 08:20 Mostly Cloudy with Light Rain 45 7 43 6 93 93 W 17 28 30.03 1017 5 8 N/A
8:50 am 08:50 Mostly Cloudy with Light Rain 45 7 43 6 93 93 WNW 17 28 30.03 1017 5 8 N/A
9:20 am 09:20 Mostly Cloudy with Light Rain 46 8 43 6 87 87 WNW 22 35 30.03 1017 30 48 N/A
9:50 am 09:50 Mostly Cloudy 46 8 39 4 76 76 NW 23 37 30.06 1018 30 48 N/A
10:20 am 10:20 Partly Cloudy 45 7 36 2 71 71 NW 22 35 30.09 1019 30 48 N/A
10:50 am 10:50 Mostly Sunny 45 7 36 2 71 71 NW 16 26 30.12 1020 30 48 N/A
11:20 am 11:20 Partly Cloudy with Showers Nearby 43 6 36 2 76 76 NNW 20 31 30.15 1021 30 48 N/A
12:20 pm 12:20 Partly Cloudy 45 7 32 0 61 61 NNW 18 30 30.18 1022 30 48 N/A
12:50 pm 12:50 Partly Cloudy 43 6 32 0 66 66 NNW 18 30 30.18 1022 30 48 N/A
1:20 pm 13:20 Partly Cloudy 43 6 30 -1 61 61 NNW 18 30 30.21 1023 30 48 N/A
1:50 pm 13:50 Mostly Cloudy 43 6 32 0 66 66 NW 16 26 30.24 1024 30 48 N/A
2:20 pm 14:20 Partly Cloudy 43 6 30 -1 61 61 NNW 13 20 30.24 1024 30 48 N/A
2:50 pm 14:50 Mostly Sunny 41 5 30 -1 66 66 NW 12 19 30.24 1024 30 48 N/A
3:20 pm 15:20 Mostly Sunny 41 5 30 -1 66 66 NW 10 17 30.27 1025 30 48 N/A
3:50 pm 15:50 Partly Cloudy 41 5 28 -2 61 61 NW 8 13 30.27 1025 30 48 N/A
4:20 pm 16:20 Mostly Sunny 39 4 30 -1 70 70 NW 7 11 30.30 1026 30 48 N/A
4:50 pm 16:50 Mostly Clear 39 4 30 -1 70 70 WNW 6 9 30.33 1027 30 48 N/A
5:20 pm 17:20 Mostly Clear 37 3 30 -1 75 75 WNW 7 11 30.33 1027 30 48 N/A
5:50 pm 17:50 Mostly Clear 37 3 30 -1 75 75 W 6 9 30.36 1028 7 11 N/A
6:20 pm 18:20 Mostly Clear 37 3 30 -1 75 75 W 6 9 30.36 1028 7 11 N/A
6:50 pm 18:50 Mostly Clear 36 2 30 -1 81 81 W 5 7 30.39 1029 7 11 N/A
7:20 pm 19:20 Mostly Clear 36 2 30 -1 81 81 W 6 9 30.39 1029 7 11 N/A
7:50 pm 19:50 Mostly Clear 36 2 30 -1 81 81 W 6 9 30.39 1029 30 48 N/A
8:20 pm 20:20 Mostly Clear 36 2 30 -1 81 81 W 7 11 30.42 1030 30 48 N/A
8:50 pm 20:50 Mostly Clear 36 2 30 -1 81 81 W 5 7 30.42 1030 30 48 N/A
9:20 pm 21:20 Mostly Clear 34 1 28 -2 81 81 WSW 5 7 30.45 1031 30 48 N/A
9:50 pm 21:50 Mostly Clear 32 0 30 -1 93 93 VRB 2 4 30.45 1031 30 48 N/A
10:20 pm 22:20 Mostly Clear 34 1 32 0 93 93 WSW 5 7 30.45 1031 30 48 N/A
10:50 pm 22:50 Mostly Clear 34 1 30 -1 87 87 W 5 7 30.48 1032 30 48 N/A
11:20 pm 23:20 Mostly Cloudy 36 2 30 -1 81 81 W 5 7 30.45 1031 30 48 N/A
11:50 pm 23:50 Cloudy 36 2 32 0 87 87 W 6 9 30.48 1032 30 48 N/A

Powered by AerisWeather